Location: G�ndlingen
(48.0142°N, 7.6396°E)
Time: 08:33:47
(UTC+00:00)

Cosmos 1606 - Pass Details

Date: 05 July 2020
Orbit: 505 x 527 km, 82.5° (Epoch: 04 August)

Event Time Altitude Azimuth Distance (km) Brightness Sun altitude
Rises 22:45:03 0° 352° (N) 2,663 8.0 -18.5°
Reaches altitude 10° 22:47:12 10° 354° (N) 1,773 6.7 -18.5°
Maximum altitude 22:51:06 75° 80° (E) 550 2.7 -18.7°
Enters shadow 22:52:03 49° 152° (SSE) 686 2.9 -18.7°
